Regional Weather Roundup
Issued by NWS

Home | Current Version | Previous Version | Graphics & Text | Print | Product List | Glossary Off
Versions: 1 2 3 4 5 6 7 8 9 10 11 12 13 14 15 16 17 18 19 20 21 22 23 24 25 26 27 28 29 30 31 32 33 34 35 36 37 38 39 40 41 42 43 44 45 46 47 48 49 50

000
ASUS43 KDTX 011210
RWRMI
MICHIGAN HOURLY REGIONAL WEATHER ROUNDUP
NATIONAL WEATHER SERVICE DETROIT/PONTIAC MI
800 AM EDT TUE SEP 01 2015

NOTE: "FAIR" INDICATES FEW OR NO CLOUDS BELOW 12,000 FEET WITH NO
SIGNIFICANT WEATHER AND/OR OBSTRUCTION TO VISIBILITY.

MIZ047>049-052>055-059>063-066>070-074>076-081>083-011300-
SOUTHEAST LOWER MICHIGAN

CITY           SKY/WX    TMP DP  RH WIND       PRES   REMARKS
ADRIAN         CLEAR     63  61  93 CALM      30.12R FOG
6HR MIN TEMP:  60; 6HR MAX TEMP:  65;

ALMA           CLOUDY    60  60 100 CALM      30.09S FOG
ANN ARBOR      SUNNY     62  61  96 CALM      30.10S FOG
BAD AXE        FOG       60  60 100 CALM      30.09R VSB<1/4
DETROIT CITY   SUNNY     68  65  90 CALM      30.10R FOG
6HR MIN TEMP:  65; 6HR MAX TEMP:  71;

DETROIT        MOSUNNY   70  66  87 CALM      30.10R FOG
6HR MIN TEMP:  67; 6HR MAX TEMP:  71;

FLINT            N/A     65  62  90 CALM      30.10R FOG
6HR MIN TEMP:  60; 6HR MAX TEMP:  64;

GROSSE ILE       N/A     70  66  88 CALM      30.09R FOG
HILLSDALE      CLEAR     68  68  99 CALM      30.12R FOG
6HR MIN TEMP:  63; 6HR MAX TEMP:  68;

HOWELL         SUNNY     63  63  99 CALM      30.10S FOG

CITY           SKY/WX    TMP DP  RH WIND       PRES   REMARKS
JACKSON        CLEAR     64  62  93 CALM      30.11R FOG
6HR MIN TEMP:  62; 6HR MAX TEMP:  65;

LAMBERTVILLE     N/A     66  64  92 CALM      30.11R FOG
6HR MIN TEMP:  63; 6HR MAX TEMP:  68;

LANSING        CLEAR     64  63  96 CALM      30.09S
6HR MIN TEMP:  63; 6HR MAX TEMP:  66;

LAPEER         NOT AVBL
MASON          FOG       65  63  93 S3        30.10S VSB 1
6HR MIN TEMP:  63; 6HR MAX TEMP:  65;

MONROE         MOSUNNY   64  63  97 CALM      30.09S FOG
6HR MIN TEMP:  61; 6HR MAX TEMP:  66;

MT. CLEMENS    MOSUNNY   63  63 100 CALM      30.07S FOG
6HR MIN TEMP:  61; 6HR MAX TEMP:  65;

PONTIAC        SUNNY     63  62  97 CALM      30.10R FOG
6HR MIN TEMP:  61; 6HR MAX TEMP:  65;

PORT HOPE        N/A     65  63  93 SW3       30.06R
6HR MIN TEMP:  63; 6HR MAX TEMP:  67;

PORT HURON     FOG       57  57 100 CALM      30.09S VSB<1/4
TRI CITIES     CLEAR     64  63  96 SW5       30.09R FOG
6HR MIN TEMP:  62; 6HR MAX TEMP:  67;

YPSILANTI      SUNNY     66  62  87 CALM      30.11R FOG
6HR MIN TEMP:  64; 6HR MAX TEMP:  68;

$$
MIZ043>046-050>051-056>058-064>065-071>073-077>080-011300-
SOUTHWEST LOWER MICHIGAN

CITY           SKY/WX    TMP DP  RH WIND       PRES   REMARKS
BATTLE CREEK   CLEAR     68  66  93 S3        30.10S FOG
6HR MIN TEMP:  65; 6HR MAX TEMP:  68;

BENTON HARBOR  CLEAR     68  67  96 CALM      30.07S FOG
6HR MIN TEMP:  65; 6HR MAX TEMP:  70;

BIG RAPIDS     CLEAR     57  56  98 CALM      30.07S
6HR MIN TEMP:  56; 6HR MAX TEMP:  59;

COLDWATER      CLEAR     67  67 100 CALM      30.11S FOG
6HR MIN TEMP:  63; 6HR MAX TEMP:  67;

HOLLAND        PTCLDY    67  65  93 S3        30.08R FOG
6HR MIN TEMP:  64; 6HR MAX TEMP:  67;

GRAND RAPIDS   PTCLDY    66  65  96 S3        30.08R FOG
6HR MIN TEMP:  63; 6HR MAX TEMP:  66;

KALAMAZOO      CLEAR     67  66  97 S5        30.10R FOG
6HR MIN TEMP:  64; 6HR MAX TEMP:  69;

MARSHALL       FOG       66  65  97 CALM      30.10R VSB 1/4
6HR MIN TEMP:  60; 6HR MAX TEMP:  66;

MUSKEGON       PTCLDY    65  62  90 SE6       30.06S FOG
6HR MIN TEMP:  63; 6HR MAX TEMP:  65;

$$
MIZ016>042-011300-
NORTHERN LOWER MICHIGAN

CITY           SKY/WX    TMP DP  RH WIND       PRES   REMARKS
ALPENA         SUNNY     62  61  96 CALM      30.05R FOG
6HR MIN TEMP:  56; 6HR MAX TEMP:  62;

BEAVER ISLAND  CLEAR     67  66  96 SW10      30.02R FOG
6HR MIN TEMP:  66; 6HR MAX TEMP:  67;

BELLAIRE       CLEAR     58  57  96 CALM      30.05R FOG
6HR MIN TEMP:  57; 6HR MAX TEMP:  62;

CADILLAC       FOG       58  56  96 CALM      30.08S VSB<1/4
CHARLEVOIX     CLEAR     65  65  98 SE3       30.06R FOG
FRANKFORT      SUNNY     68  66  93 CALM      30.04R FOG
GAYLORD        FOG       62  62 100 W3        30.07R VSB 1/4
6HR MIN TEMP:  60; 6HR MAX TEMP:  65;

GRAYLING       FOG       57  57 100 CALM      30.08R VSB<1/4
6HR MIN TEMP:  54; 6HR MAX TEMP:  60;

HARBOR SPRINGS CLEAR     65  65  97 SW3       30.03S FOG
HOUGHTON LAKE  MOCLDY    58  57  97 CALM      30.09R FOG
6HR MIN TEMP:  55; 6HR MAX TEMP:  66;

MANISTEE       PTCLDY    59  55  88 E3        30.05S
OSCODA         SUNNY     61  61  99 CALM      30.05S FOG
6HR MIN TEMP:  58; 6HR MAX TEMP:  65;

PELLSTON       CLEAR     65  63  93 CALM      30.03S FOG
6HR MIN TEMP:  56; 6HR MAX TEMP:  67;

TRAVERSE CITY  CLEAR     65  62  90 CALM      30.03R FOG
6HR MIN TEMP:  63; 6HR MAX TEMP:  67;

$$
MIZ007>008-015-011300-
EASTERN UPPER MICHIGAN

CITY           SKY/WX    TMP DP  RH WIND       PRES   REMARKS
KINROSS        CLOUDY    66  66 100 SW6       30.01R VSB 1/2
6HR MIN TEMP:  63; 6HR MAX TEMP:  66;

MACKINAC ISLAN CLOUDY    67  66  96 SW9       30.02S FOG
6HR MIN TEMP:  64; 6HR MAX TEMP:  67;

NEWBERRY       CLOUDY    66  66  99 SW10      29.99S FOG
6HR MIN TEMP:  66; 6HR MAX TEMP:  66;

S. S. MARIE    FOG       65  64  97 SE3       30.00S VSB 1/4
6HR MIN TEMP:  63; 6HR MAX TEMP:  65;

$$
MIZ004>006-011>014-085-011300-
CENTRAL UPPER MICHIGAN

CITY           SKY/WX    TMP DP  RH WIND       PRES   REMARKS
MANISTIQUE     CLOUDY    64  63  97 SW5       30.00R FOG
6HR MIN TEMP:  62; 6HR MAX TEMP:  64;

ESCANABA       CLOUDY    61  61 100 CALM      29.99R VSB<1/4
6HR MIN TEMP:  61; 6HR MAX TEMP:  64;

MENOMINEE      CLEAR     66  63  88 CALM      29.99R
6HR MIN TEMP:  64; 6HR MAX TEMP:  66;

SAWYER-GWINN   FOG       64  63  94 SW3       29.99S VSB 1/8
$$
MIZ001>003-009>011-084-011300-
WESTERN UPPER MICHIGAN

CITY           SKY/WX    TMP DP  RH WIND       PRES   REMARKS
IRON MOUNTAIN  CLEAR     63  61  93 S3        29.98S FOG
6HR MIN TEMP:  61; 6HR MAX TEMP:  65;

HOUGHTON       FOG       66  64  93 CALM      29.91F VSB<1/4
6HR MIN TEMP:  64; 6HR MAX TEMP:  72;

IRONWOOD       MOCLDY    72  70  94 S7        29.90F
6HR MIN TEMP:  72; 6HR MAX TEMP:  73;

$$

ABBREVIATIONS USED IN REMARKS
   TC - TEMPERATURE IN CELSIUS
  WCI - WIND CHILL INDEX
   HX - HEAT INDEX
  VSB - VISIBILITY



USA.gov is the U.S. government's official web portal to all federal, state and local government web resources and services.